Location: Lane
(33.5226°N, 79.8788°W)
Time: 16:53:59
(UTC+00:00)

SR - Pass Details

Date: 02 October 2022
Orbit: 577 x 874 km, 66.7° (Epoch: 05 December)

Event Time Altitude Azimuth Distance (km) Brightness Sun altitude
Rises 02:19:30 0° 216° (SW) 3,381 - -40.4°
Reaches altitude 10° 02:21:58 10° 221° (SW) 2,476 - -40.9°
Maximum altitude 02:27:39 56° 299° (WNW) 1,025 - -41.9°
Drops below altitude 10° 02:33:27 10° 17° (NNE) 2,525 - -43.0°
Sets 02:36:00 0° 22° (NNE) 3,453 - -43.4°
